Location: Montreal
(45.5000°N, 73.5830°W)
Time: 17:33:05
(UTC-05:00)

Tiangong 1 - Visible Passes

Search period start: 23 February 2018 00:00
Search period end: 05 March 2018 00:00
Orbit: 246 x 267 km, 42.8° (Epoch: 23 February)

Date Brightness Start Highest point End Pass type
(mag) Time Alt. Az. Time Alt. Az. Time Alt. Az.
02 Mar 2.6 18:51:17 10° SSW 18:52:28 14° SSE 18:52:28 14° SSE visible
03 Mar 2.1 18:42:23 10° SSW 18:44:04 18° SSE 18:44:39 17° SE visible
04 Mar 1.9 18:33:25 10° SW 18:35:19 23° SSE 18:36:31 15° ESE visible
